Location: Domont
(49.0278°N, 2.3264°E)
Time: 03:28:15
(UTC+00:00)

Orbus 7S? - Pass Details

Date: 06 June 2022
Orbit: 345 x 6369 km, 56.9° (Epoch: 01 July)

Event Time Altitude Azimuth Distance (km) Brightness Sun altitude
Rises 23:47:14 0° 238° (WSW) 4,921 7.9 -18.3°
Reaches altitude 10° 23:49:31 10° 239° (WSW) 4,364 7.6 -18.3°
Maximum altitude 00:02:58 85° 329° (NNW) 3,617 7.3 -18.3°
Drops below altitude 10° 00:38:50 10° 64° (ENE) 9,844 10.1 -17.5°
Sets 00:47:46 0° 66° (ENE) 11,050 10.5 -17.2°
